WESTFORD NEEDLES, 19946

Orbit data source: Space-Track

WESTFORD NEEDLES, 19946 is space debris in LEO originally from a launch on Thu, 09 May 1963 UTC launched from the Air Force Western Test Range (AFWTR). Debris objects in space refer to the collection of defunct objects orbiting the Earth. Examples of debris include non-operational satellites, rocket bodies, and fragments generated from explosions, collisions, or faulty payload assembly.

Loading next visibility...
Identifier
19946, 1963-014EU
Orbit
LEO
Country
Flag of USUS
Related business
Manufacturer
Unknown
Mission
Spacecraft
Bus & Motor
Unknown
Mass
Unknown
Launch date (UTC)
1963-05-09 (63 years ago)
Launch vehicle
Unknown
Launch site
Air Force Western Test Range (AFWTR)
Object type
Payload
Rocket body
Debris
Shape & HBR
Unknown shape, 0.2 m
Radar Cross Section
Medium (>0.1 m² and <1 m²)

Expand to show TLE details & history
Last TLE update: 1 day ago

TLE from 1 day ago
0 WESTFORD NEEDLES
1 19946U 63014EU  26127.50569715  .00000053  00000-0  21297-1 0  9999
2 19946  87.1476 326.4828 0401504 330.0214  50.0021  8.68557353185040
Epoch: 2026-05-07T12:08Z
TLE epoch observation values (Epoch: 2026-05-07T12:08:12.233Z)
Latitude
23.647°
Longitude
-79.674°
Altitude
3,372.949 km
Speed
6.475 km/s
True Right ascension
21h 50m 54s
True Declination
23° 33' 17"
Sunlit
Object was in daylight at epoch
Visualization orbit readout
Latitude
Unknown
Longitude
Unknown
Altitude
Unknown
Speed
Unknown
Apparent Right ascension
Unknown
Apparent Declination
Unknown
Sunlit
N/A
Visualization observer readout
Local Sidereal Time
20:59:21
Azimuth
Unknown
Elevation
Unknown
Doppler factor
Unknown
Orbital elements
Apogee altitude
4,017.969 km
Perigee altitude
3,215.378 km
Semi-major axis
9,994.811 km
Eccentricity
0.04015
Inclination
87.1476°
RAAN
326.4828°
Arg. of periapsis
330.0214°
True anomaly
53.64157°
Mean anomaly
50.0021°
Eccentric anomaly
51.81018°
Mean motion
2.17211 °/min
Orbital period
165.74 mins
BSTAR
0.021297
Loading maneuver chart data...
Computing Atmospheric mass density...
Loading historical data...
Loading historical data...
Loading historical data...
Loading historical data...
Loading historical data...
Loading historical data...
Loading historical data...

Documentation

Showing up to 5 results
|